Galaxy 4H

operational
NORAD ID: 22694 Int'l Des: 1993-039 Owner: HCG Country: US
HEOCIRCULARGSO

Über Galaxy 4H

Beschreibung wird geladen...

Live-Position

3D-Globus wird geladen...

Nächste Überflüge

Höhenverlauf

Altitude vs Time

uPlot chart will show altitude changes over time

Zweizeiliger Elementsatz

1 22694U 93039A 26063.53311525 -.00000131 00000-0 00000+0 0 9994
2 22694 14.5742 355.9362 0015804 31.4868 43.4224 1.00265289117954
Epoch: 4. März 2026 • Age: 21 hours

Aktueller Status

Höhe 35851.1 km
Geschwindigkeit 3.07 km/s
Subsatellitenpunkt -2.82°S, 76.36°E
Startdatum 25. Juni 1993
Alter 32.6 years
Typ other

Technische Details

Klassifizierung Payload
Masse 2988.00 kg
Trockenmasse 1323.00 kg
Gesamtmasse 2988.00 kg
Länge 4.00 m
Durchmesser 3.00 m
Spannweite 26.50 m
Form Box + 2 Pan
Hersteller HSES
Bus-Typ HS-601
Phasenstatus Renamed
Besitzer/Staat HCG/US

Große Konstellationen

Loading constellations...